Cloud_Cover
1 100 100 100 100 100 100 100 72 100 21 94 100 100 49 100 100 100 100 100 100 90 100 90 61 32 47 37 20 81 100 100 100 100 100 100 100 96 65 100 88 79 48
2 30 100 100 100 100 100 100 84 100 94 100 100 79 91 40 76 44 65 78 100 70 19 12 32 5 46 56 52 96 100 100 100 100 100 100 100 100 83 100 63 67 7
1 2 81 100 100 100 100 100 100 100 100 98 89 59 38 7 10 7 89 97 5 4 3 27 12 47 28 33 50 95 100 100 97 100 100 100 100 100 100 100 100 100 77
5 0 5 88 100 100 100 100 100 100 100 46 5 4 20 67 78 5 5 5 5 5 3 22 89 100 25 27 83 99 95 100 100 100 100 100 100 100 100 100 100 100 98
31 8 5 0 100 100 100 100 100 100 100 100 85 7 5 31 100 26 12 5 5 5 5 5 27 5 8 5 24 91 100 100 100 100 100 100 100 100 100 98 100 100 29
0 3 5 0 46 81 100 100 100 100 100 100 100 100 6 5 86 60 5 18 5 5 36 5 14 11 5 66 73 56 84 65 98 100 100 100 100 100 100 69 31 38 15
36 5 2 1 14 100 100 100 100 100 100 100 100 100 100 100 77 50 98 100 84 28 5 5 7 6 28 64 51 61 83 83 99 82 78 88 84 92 77 98 34 13 44
21 100 47 2 13 100 100 100 100 100 100 100 100 100 100 100 100 100 100 100 76 64 29 13 11 27 14 41 58 6 93 76 86 89 44 73 73 70 49 59 25 6 17
100 100 100 11 50 67 100 100 100 100 100 100 100 100 100 100 100 100 100 100 100 99 58 24 98 40 33 9 22 5 5 5 10 31 11 38 74 32 87 21 6 8 12
100 92 12 15 10 20 100 100 100 100 100 100 100 100 100 100 100 100 100 100 100 99 100 32 45 59 88 57 10 10 10 36 27 5 6 81 13 44 5 16 5 5 5
95 3 0 5 4 0 65 100 100 100 100 100 100 100 100 100 100 100 100 100 76 59 97 100 100 100 100 100 96 94 100 84 63 6 11 16 94 79 98 5 5 5 5
5 4 3 6 1 14 29 100 100 100 100 100 100 100 100 100 100 100 100 100 99 100 99 100 100 100 100 100 100 100 100 100 98 92 77 100 100 100 60 21 15 41 67
18 71 84 54 46 52 81 100 100 100 100 100 100 100 100 100 100 100 100 100 91 96 91 100 100 100 100 100 100 100 100 100 100 100 100 100 74 98 51 99 100 29 49
100 95 100 100 100 100 99 100 100 100 100 100 100 100 100 100 100 100 100 100 100 100 100 100 100 100 100 100 89 93 100 100 100 100 100 99 86 100 100 100 100 78 6
71 54 35 83 97 100 90 100 98 96 97 100 100 100 100 100 100 100 100 100 100 100 100 99 98 100 100 100 100 100 100 100 100 100 100 100 100 100 100 100 100 52 35
5 9 7 15 28 42 71 46 53 88 100 100 100 100 100 100 100 100 100 100 100 100 100 100 100 100 100 100 100 100 100 100 100 100 100 100 100 100 100 100 100 98 100
0 0 0 20 29 33 28 25 15 28 96 100 100 100 100 100 100 100 100 100 100 100 100 100 100 100 100 100 100 100 100 100 100 100 100 100 100 98 59 100 100 100 100
0 5 0 5 5 16 28 24 19 21 39 83 89 100 100 100 99 100 100 100 100 100 100 100 100 100 100 100 100 100 100 100 100 100 100 100 100 100 100 100 100 100 99
0 3 4 4 1 14 10 23 25 8 42 92 87 67 98 83 100 100 100 100 100 100 100 100 100 100 100 100 100 100 100 100 100 100 100 100 100 100 100 99 98 75 9
6 13 15 28 62 11 10 22 26 29 28 29 30 23 6 26 98 88 68 100 100 100 100 100 100 100 100 100 100 100 100 100 100 100 100 100 76 95 78 21 15 59 81
83 40 17 25 23 13 11 11 10 21 25 26 22 36 90 42 93 89 75 97 98 98 57 98 100 100 100 100 88 96 100 100 99 100 100 96 62 100 86 45 95 92 92
36 41 85 78 5 7 8 10 5 8 12 17 6 27 30 7 14 26 12 9 16 48 73 55 91 100 100 83 89 100 100 100 100 100 100 100 100 100 100 100 100 100 100
70 85 100 30 20 22 8 20 46 59 8 3 4 27 64 45 70 19 35 13 29 32 44 77 61 56 62 49 79 100 95 98 100 100 100 100 100 100 100 100 100 100 100
3 3 20 10 15 19 10 9 0 10 68 5 6 31 60 14 80 96 87 8 28 41 86 7 48 86 100 100 100 100 100 100 100 100 100 100 100 100 100 100 100 100 100
27 6 22 32 15 3 81 36 17 8 33 5 18 96 63 96 73 28 32 56 19 22 100 100 99 100 100 100 100 100 100 100 100 100 100 100 100 100 100 100 100 100 100
94 80 87 100 91 51 18 6 79 15 58 78 31 70 92 99 94 100 95 95 95 100 91 100 92 100 100 100 100 100 100 100 100 100 100 100 100 100 100 100 100 100 100